User: anonymous   Login
Location: Unspecified
(0.0000°N, 0.0000°E)
Time: 17:23:29
(UTC+00:00)
Language:

AUBIESAT-1 - Orbit

View from above orbital plane
View from above orbital plane
View from above satellite
View from above satellite

Ground track
Ground track

The orbit data is extracted from the following two-line orbital elements,

1 37854U 11061E   16124.80609140  .00004187  00000-0  23908-3 0  9993
2 37854 101.7070 145.0078 0174187 204.7975 154.4789 15.01892554245438
Epoch (UTC): 03 May 2016 19:20:46
Eccentricity: 0.0174187
inclination: 101.7070°
perigee height: 440 km
apogee height: 682 km
right ascension of ascending node: 145.0078°
argument of perigee: 204.7975°
revolutions per day: 15.01892554
mean anomaly at epoch: 154.4789°
orbit number at epoch: 24543

The dashed part of the orbit path shows where the satellite is in the earth's shadow,  

DLR